Weather History for KEVW - April, 2014

Change the Weather History Date:

Tuesday, April 1, 2014

  Actual Average Record
Temperature  
Mean Temperature 32 °F 35 °F  
Max Temperature 37 °F 45 °F 59 °F (2003)
Min Temperature 27 °F 26 °F 3 °F (2008)
Degree Days  
Heating Degree Days 33 30  
Month to date heating degree days 33 30  
Since 1 July heating degree days 6635 7098  
Cooling Degree Days 0 0  
Month to date cooling degree days 0 0  
Year to date cooling degree days 0 0  
Moisture  
Dew Point 27 °F    
Average Humidity 85    
Maximum Humidity 100    
Minimum Humidity 70    
Precipitation  
Precipitation 0.02 in 0.03 in 0.27 in (2013)
Month to date precipitation 0.02 0.03  
Year to date precipitation 0.13 2.04  
Sea Level Pressure  
Sea Level Pressure 29.70 in    
Wind  
Wind Speed 9 mph (SSE)    
Max Wind Speed 16 mph    
Max Gust Speed 28 mph    
Visibility 3 miles    
Events Fog , Snow    
T = Trace of Precipitation, MM = Missing Value Source: NWS Daily Summary

Daily Weather History Graph

Daily Weather History Graph

Search for Another Location

Airport or City:

Trip Planner

Search our weather history database for the weather conditions in past years. The results will help you decide how hot, cold, wet, or windy it might be!

Date:

Astronomy

Apr. 01, 2014 Rise Set
Actual Time 7:07 AM MDT 7:49 PM MDT
Civil Twilight 6:39 AM MDT 8:17 PM MDT
Nautical Twilight 6:06 AM MDT 8:50 PM MDT
Astronomical Twilight 5:32 AM MDT 9:24 PM MDT
Moon 8:11 AM MDT 10:17 PM MDT
Length of Visible Light 13h 37m
Length of Day
12h 42m
Waxing Crescent, 5% of the Moon is Illuminated
Apr 1
Waxing Crescent
Apr 7
First Quarter
Apr 15
Full
Apr 22
Last Quarter
Apr 29
New

Hourly Weather History & Observations

Time (MDT) Temp. Windchill Dew Point Humidity Pressure Visibility Wind Dir Wind Speed Gust Speed Precip Events Conditions
12:01 AM 28.9 °F 23.9 °F 27.0 °F 92% 29.80 in 0.8 mi NE 4.6 mph - 0.00 in Snow Light Snow
12:16 AM 28.9 °F 23.9 °F 27.0 °F 92% 29.80 in 1.0 mi ENE 4.6 mph - 0.00 in Snow Light Snow
12:38 AM 28.9 °F 21.9 °F 27.0 °F 92% 29.78 in 1.2 mi ENE 6.9 mph - 0.01 in Snow Light Snow
12:53 AM 28.9 °F 21.9 °F 27.0 °F 92% 29.76 in 0.8 mi East 6.9 mph - 0.01 in Snow Light Snow
1:00 AM 28.9 °F 21.9 °F 27.0 °F 92% 29.78 in 0.8 mi East 6.9 mph - 0.00 in Snow Light Snow
1:18 AM 28.9 °F 21.9 °F 27.0 °F 92% 29.77 in 1.0 mi East 6.9 mph - 0.01 in Snow Light Snow
1:25 AM 28.9 °F 23.9 °F 27.0 °F 92% 29.77 in 2.0 mi East 4.6 mph - 0.01 in Snow Light Snow
1:31 AM 28.9 °F 21.9 °F 27.0 °F 92% 29.77 in 3.0 mi East 6.9 mph - 0.01 in Snow Light Snow
1:38 AM 28.9 °F 21.1 °F 27.0 °F 92% 29.76 in 2.0 mi East 8.1 mph - 0.01 in Snow Light Snow
1:40 AM 28.9 °F 21.9 °F 27.0 °F 92% 29.76 in 1.8 mi East 6.9 mph - 0.01 in Snow Light Snow
1:44 AM 28.9 °F 21.1 °F 27.0 °F 92% 29.76 in 1.5 mi East 8.1 mph - 0.01 in Snow Light Snow
1:53 AM 28.9 °F 21.9 °F 27.0 °F 92% 29.72 in 1.8 mi East 6.9 mph - 0.01 in Snow Light Snow
2:07 AM 28.9 °F 22.8 °F 27.0 °F 92% 29.75 in 1.2 mi East 5.8 mph - 0.00 in Snow Light Snow
2:15 AM 28.9 °F 21.9 °F 27.0 °F 92% 29.75 in 0.5 mi East 6.9 mph - 0.00 in Fog , Snow Snow
2:32 AM 28.9 °F 21.1 °F 27.0 °F 92% 29.75 in 0.5 mi East 8.1 mph - 0.03 in Fog , Snow Snow
2:41 AM 28.9 °F 21.9 °F 27.0 °F 92% 29.75 in 1.0 mi ENE 6.9 mph - 0.03 in Snow Light Snow
2:53 AM 28.0 °F 20.0 °F 27.0 °F 96% 29.70 in 1.0 mi ENE 8.1 mph - 0.03 in Snow Light Snow
2:59 AM 28.0 °F 22.8 °F 27.0 °F 96% 29.74 in 0.5 mi East 4.6 mph - 0.01 in Fog , Snow Snow
3:53 AM 28.0 °F 20.0 °F 27.0 °F 96% 29.68 in 0.5 mi East 8.1 mph - 0.03 in Fog , Snow Snow
4:03 AM 28.0 °F 19.3 °F 27.0 °F 96% 29.71 in 0.8 mi East 9.2 mph - 0.00 in Snow Light Snow
4:53 AM 28.0 °F 18.6 °F 27.0 °F 96% 29.65 in 0.8 mi East 10.4 mph - 0.03 in Snow Light Snow
5:17 AM 28.0 °F 17.5 °F 27.0 °F 96% 29.68 in 1.2 mi East 12.7 mph - 0.00 in Snow Light Snow
5:34 AM 28.0 °F 18.1 °F 27.0 °F 96% 29.68 in 2.0 mi East 11.5 mph - 0.00 in Snow Light Snow
5:41 AM 28.0 °F 18.6 °F 27.0 °F 96% 29.68 in 2.5 mi East 10.4 mph - 0.00 in Snow Light Snow
5:51 AM 28.4 °F 19.1 °F 26.6 °F 93% 29.68 in 1.8 mi East 10.4 mph - 0.00 in Snow Light Snow
5:53 AM 28.0 °F 18.6 °F 27.0 °F 96% 29.66 in 2.0 mi East 10.4 mph - 0.00 in Snow Light Snow
6:19 AM 28.0 °F 18.1 °F 27.0 °F 96% 29.67 in 3.0 mi East 11.5 mph - 0.00 in Snow Light Snow
6:28 AM 28.0 °F 18.1 °F 26.1 °F 92% 29.67 in 4.0 mi East 11.5 mph - 0.00 in Snow Light Snow
6:53 AM 28.0 °F 20.0 °F 26.1 °F 92% 29.65 in 10.0 mi East 8.1 mph - 0.00 in   Overcast
7:48 AM 28.4 °F 18.5 °F 24.8 °F 86% 29.66 in 1.8 mi East 11.5 mph - 0.00 in Snow Light Snow
7:53 AM 28.0 °F 17.5 °F 25.0 °F 88% 29.67 in 1.5 mi East 12.7 mph - 0.00 in Snow Light Snow
7:59 AM 28.0 °F 18.1 °F 26.1 °F 92% 29.67 in 2.0 mi East 11.5 mph - 0.00 in Snow Light Snow
8:12 AM 28.0 °F 17.5 °F 26.1 °F 92% 29.66 in 1.5 mi East 12.7 mph - 0.00 in Snow Light Snow
8:16 AM 28.0 °F 18.6 °F 26.1 °F 92% 29.66 in 0.8 mi East 10.4 mph - 0.00 in Snow Light Snow
8:45 AM 28.0 °F 17.0 °F 27.0 °F 96% 29.66 in 1.2 mi East 13.8 mph - 0.00 in Snow Light Snow
8:49 AM 28.4 °F 17.5 °F 26.6 °F 93% 29.66 in 2.0 mi East 13.8 mph - 0.00 in Snow Light Snow
8:53 AM 28.0 °F 18.1 °F 27.0 °F 96% 29.66 in 3.0 mi East 11.5 mph - 0.00 in Snow Light Snow
9:09 AM 28.9 °F 19.2 °F 27.0 °F 92% 29.66 in 1.8 mi East 11.5 mph - 0.00 in Snow Light Snow
9:17 AM 28.9 °F 19.2 °F 27.0 °F 92% 29.66 in 1.2 mi ESE 11.5 mph - 0.00 in Snow Light Snow
9:24 AM 28.9 °F 20.4 °F 27.0 °F 92% 29.66 in 0.5 mi SE 9.2 mph - 0.00 in Fog , Snow Snow
9:31 AM 28.9 °F 21.1 °F 27.0 °F 92% 29.67 in 0.2 mi SE 8.1 mph - 0.02 in Fog , Snow Heavy Snow
9:50 AM 28.4 °F 19.7 °F 28.4 °F 100% 29.66 in 0.2 mi East 9.2 mph - 0.02 in Fog , Snow Snow
9:53 AM 28.9 °F 22.8 °F 28.0 °F 96% 29.66 in 0.5 mi East 5.8 mph - 0.02 in Fog , Snow Snow
10:00 AM 30.0 °F 24.1 °F 28.0 °F 92% 29.66 in 0.8 mi ESE 5.8 mph - 0.00 in Snow Light Snow
10:06 AM 30.0 °F 26.5 °F 28.0 °F 92% 29.66 in 2.0 mi East 3.5 mph - 0.00 in Snow Light Snow
10:12 AM 30.9 °F 27.5 °F 28.0 °F 89% 29.66 in 6.0 mi ESE 3.5 mph - 0.00 in   Overcast
10:53 AM 32.0 °F - 28.0 °F 85% 29.66 in 10.0 mi Calm Calm - 0.00 in   Partly Cloudy
11:06 AM 33.1 °F 27.7 °F 28.0 °F 82% 29.67 in 10.0 mi Variable 5.8 mph - N/A   Mostly Cloudy
11:53 AM 34.0 °F 28.0 °F 28.0 °F 79% 29.65 in 10.0 mi SW 6.9 mph - N/A   Partly Cloudy
12:53 PM 35.1 °F 26.4 °F 28.0 °F 76% 29.65 in 10.0 mi SW 12.7 mph - N/A   Overcast
1:53 PM 37.0 °F 27.7 °F 27.0 °F 67% 29.63 in 10.0 mi SW 16.1 mph - N/A   Mostly Cloudy
2:17 PM 35.1 °F 25.9 °F 27.0 °F 72% 29.67 in 10.0 mi WSW 13.8 mph - N/A   Overcast
2:28 PM 33.1 °F 22.2 °F 30.0 °F 89% 29.67 in 1.5 mi WSW 17.3 mph - 0.00 in Snow Light Snow
2:31 PM 33.1 °F 21.9 °F 30.0 °F 89% 29.67 in 0.8 mi WSW 18.4 mph - 0.00 in Snow Light Snow
2:43 PM 32.0 °F 22.1 °F 30.0 °F 92% 29.66 in 0.8 mi WSW 13.8 mph - 0.00 in Snow Light Snow
2:48 PM 33.8 °F 23.9 °F 30.2 °F 87% 29.66 in 1.8 mi SW 15.0 mph - 0.00 in Snow Light Snow
2:51 PM 33.8 °F 24.3 °F 30.2 °F 87% 29.66 in 3.0 mi WSW 13.8 mph - 0.00 in Snow Light Snow
2:53 PM 35.1 °F 25.9 °F 30.0 °F 82% 29.64 in 6.0 mi WSW 13.8 mph - 0.00 in Snow Light Snow
3:05 PM 35.1 °F 24.8 °F 30.0 °F 82% 29.66 in 10.0 mi WSW 17.3 mph - 0.00 in   Overcast
3:53 PM 32.0 °F 19.5 °F 30.0 °F 92% 29.68 in 0.8 mi SW 21.9 mph 27.6 mph 0.00 in Snow Light Snow
4:00 PM 30.9 °F 18.4 °F 28.9 °F 92% 29.68 in 0.2 mi SW 20.7 mph - 0.00 in Fog , Snow Heavy Snow
4:09 PM 30.9 °F 18.7 °F 28.9 °F 92% 29.68 in 0.2 mi WSW 19.6 mph - 0.00 in Fog , Snow Heavy Snow
4:22 PM 30.9 °F 19.1 °F 30.0 °F 96% 29.68 in 0.5 mi SW 18.4 mph - 0.00 in Fog , Snow Snow
4:29 PM 30.9 °F 19.8 °F 28.9 °F 92% 29.68 in 0.5 mi SW 16.1 mph - 0.00 in Fog , Snow Snow
4:36 PM 32.0 °F 20.8 °F 30.0 °F 92% 29.68 in 0.5 mi SW 17.3 mph - 0.00 in Fog , Snow Snow
4:45 PM 30.9 °F 20.2 °F 30.0 °F 96% 29.68 in 1.8 mi WSW 15.0 mph - 0.00 in Snow Light Snow
4:49 PM 30.2 °F 19.8 °F 30.2 °F 100% 29.68 in 2.0 mi West 13.8 mph - 0.00 in Snow Light Snow
4:53 PM 30.9 °F 19.4 °F 28.9 °F 92% 29.68 in 2.5 mi WSW 17.3 mph - 0.00 in Snow Light Snow
4:55 PM 30.9 °F 20.2 °F 28.0 °F 89% 29.68 in 3.0 mi WSW 15.0 mph - 0.00 in Snow Light Snow
5:02 PM 32.0 °F 24.2 °F 28.9 °F 88% 29.68 in 9.0 mi WSW 9.2 mph - 0.00 in   Mostly Cloudy
5:53 PM 30.0 °F 17.9 °F 27.0 °F 88% 29.72 in 3.0 mi West 18.4 mph - 0.00 in Snow Light Snow
5:56 PM 30.0 °F 17.2 °F 27.0 °F 88% 29.71 in 1.5 mi West 20.7 mph - 0.00 in Snow Light Snow
6:04 PM 28.9 °F 17.7 °F 27.0 °F 92% 29.72 in 0.5 mi West 15.0 mph - 0.00 in Fog , Snow Snow
6:12 PM 28.9 °F 18.6 °F 27.0 °F 92% 29.72 in 0.2 mi West 12.7 mph - 0.00 in Fog , Snow Snow
6:22 PM 28.9 °F 19.2 °F 27.0 °F 92% 29.72 in 1.0 mi WSW 11.5 mph - 0.00 in Snow Light Snow
6:24 PM 28.9 °F 20.4 °F 27.0 °F 92% 29.72 in 2.5 mi WSW 9.2 mph - 0.00 in Snow Light Snow
6:31 PM 28.9 °F 21.1 °F 27.0 °F 92% 29.72 in 9.0 mi WSW 8.1 mph - 0.00 in   Overcast
6:53 PM 28.9 °F 21.1 °F 27.0 °F 92% 29.74 in 10.0 mi SW 8.1 mph - 0.00 in   Overcast
7:38 PM 28.9 °F 21.1 °F 27.0 °F 92% 29.74 in 4.0 mi WSW 8.1 mph - 0.00 in Snow Light Snow
7:53 PM 28.9 °F 21.1 °F 26.1 °F 89% 29.76 in 9.0 mi WSW 8.1 mph - 0.00 in   Overcast
8:09 PM 28.0 °F 18.1 °F 26.1 °F 92% 29.74 in 6.0 mi WSW 11.5 mph - 0.00 in Snow Light Snow
8:17 PM 28.0 °F 20.0 °F 24.1 °F 85% 29.74 in 8.0 mi WSW 8.1 mph - 0.00 in Snow Light Snow
8:53 PM 27.0 °F 17.3 °F 23.0 °F 85% 29.78 in 10.0 mi WSW 10.4 mph - 0.00 in   Mostly Cloudy
9:16 PM 26.1 °F 19.4 °F 24.1 °F 92% 29.75 in 10.0 mi South 5.8 mph - N/A   Mostly Cloudy
9:20 PM 26.1 °F 19.4 °F 24.1 °F 92% 29.75 in 4.0 mi South 5.8 mph - N/A   Mostly Cloudy
9:23 PM 26.1 °F 19.4 °F 24.1 °F 92% 29.75 in 1.2 mi SSW 5.8 mph - N/A   Overcast
9:31 PM 26.1 °F 19.4 °F 24.1 °F 92% 29.75 in 0.5 mi SW 5.8 mph - N/A Fog Light Freezing Fog
9:51 PM 24.8 °F 17.9 °F 21.2 °F 86% 29.75 in 2.0 mi SW 5.8 mph - N/A   Mostly Cloudy
9:53 PM 24.1 °F 17.0 °F 21.9 °F 91% 29.79 in 5.0 mi SW 5.8 mph - N/A   Mostly Cloudy
10:03 PM 24.1 °F 16.0 °F 21.9 °F 91% 29.75 in 10.0 mi SW 6.9 mph - N/A   Scattered Clouds
10:53 PM 21.9 °F 12.5 °F 19.9 °F 92% 29.78 in 10.0 mi SSW 8.1 mph - N/A   Clear
11:53 PM 23.0 °F 15.8 °F 19.0 °F 85% 29.75 in 10.0 mi SSW 5.8 mph - N/A   Clear